Location: Bainbridge
(30.9040°N, 84.5757°W)
Time: 06:41:33
(UTC+00:00)

Hubble Space Telescope - Visible Passes

Search period start: 04 October 2024 00:00
Search period end: 14 October 2024 00:00
Orbit: 504 x 508 km, 28.5° (Epoch: 03 October)

Date Brightness Start Highest point End Pass type
(mag) Time Alt. Az. Time Alt. Az. Time Alt. Az.
04 Oct 1.0 10:11:40 42° SW 10:12:23 48° S 10:16:10 10° ESE visible
05 Oct 1.4 09:51:48 41° SSE 09:51:48 41° SSE 09:54:56 10° ESE visible
06 Oct 2.7 09:31:57 23° SE 09:31:57 23° SE 09:33:39 10° ESE visible
06 Oct 2.6 11:07:26 10° WSW 11:09:58 17° SSW 11:12:30 10° SSE visible
07 Oct 3.7 09:12:07 11° SE 09:12:07 11° SE 09:12:19 10° ESE visible
07 Oct 2.7 10:46:48 11° SW 10:48:39 15° SSW 10:50:55 10° SSE visible
08 Oct 2.7 10:26:59 13° SSW 10:27:17 13° SSW 10:29:14 10° S visible
09 Oct 3.2 10:07:10 10° S 10:07:10 10° S 10:07:23 10° S visible
